This is the latest recevied weather packets stored in our database for station/object KC0UFP. If no packets are shown the sender has not sent any weather packets the latest 10 day(s).
| Time | Temp. | Humidity | Pressure | Rain* | Wind** | Luminosity | Snow |
|---|---|---|---|---|---|---|---|
| 1777580190 | 17.22° C | 42% | 1016.5 hPa | 0 mm | - | 921 W/m² | - |
| 1777579886 | 17.78° C | 44% | 1016.2 hPa | 0 mm | - | 898 W/m² | - |
| 1777579586 | 17.22° C | 42% | 1016.5 hPa | 0 mm | - | 987 W/m² | - |
| 1777579286 | 17.22° C | 43% | 1016.5 hPa | 0 mm | - | 830 W/m² | - |
| 1777578982 | 17.22° C | 42% | 1016.9 hPa | 0 mm | - | 879 W/m² | - |
| 1777578677 | 17.22° C | 44% | 1016.7 hPa | 0 mm | - | 880 W/m² | - |
| 1777578376 | 17.22° C | 42% | 1016.9 hPa | 0 mm | - | 666 W/m² | - |
| 1777578072 | 17.22° C | 41% | 1016.9 hPa | 0 mm | - | 871 W/m² | - |
| 1777577768 | 16.67° C | 44% | 1016.9 hPa | 0 mm | - | 832 W/m² | - |
| 1777577464 | 16.67° C | 43% | 1017 hPa | 0 mm | - | 880 W/m² | - |
| 1777577162 | 16.67° C | 41% | 1017.2 hPa | 0 mm | - | 678 W/m² | - |
| 1777576858 | 16.67° C | 41% | 1017.1 hPa | 0 mm | - | 622 W/m² | - |
| 1777576556 | 16.67° C | 42% | 1016.9 hPa | 0 mm | - | 671 W/m² | - |
| 1777576253 | 16.67° C | 41% | 1017.2 hPa | 0 mm | - | 704 W/m² | - |
| 1777575950 | 16.67° C | 43% | 1017 hPa | 0 mm | - | 762 W/m² | - |
| 1777575646 | 16.67° C | 42% | 1017.2 hPa | 0 mm | - | 824 W/m² | - |
| 1777575342 | 16.67° C | 41% | 1017.4 hPa | 0 mm | - | 753 W/m² | - |
| 1777575038 | 16.67° C | 44% | 1017.3 hPa | 0 mm | - | 760 W/m² | - |
| 1777574734 | 16.11° C | 42% | 1017.3 hPa | 0 mm | - | 754 W/m² | - |
| 1777574432 | 16.11° C | 44% | 1017.3 hPa | 0 mm | - | 742 W/m² | - |
| 1777574127 | 16.67° C | 45% | 1017.4 hPa | 0 mm | - | 704 W/m² | - |
| 1777573823 | 16.67° C | 43% | 1017.9 hPa | 0 mm | - | 763 W/m² | - |
| 1777573518 | 16.67° C | 41% | 1017.7 hPa | 0 mm | - | 763 W/m² | - |
| 1777573215 | 16.67° C | 46% | 1017.6 hPa | 0 mm | - | 897 W/m² | - |
| 1777572911 | 16.67° C | 44% | 1017.7 hPa | 0 mm | - | 816 W/m² | - |
* Rain latest hour (hover to see other rain measurements)
** Current wind speed in m/s (hover to see current wind gust speed)